DW4070 Stamford CT US current weather conditions

sailwx.info

Wind from 244

Air temperature 16.7° C
Dewpoint 16.7° C

Last reported at 2020-Aug-15 11:00 UTC.
Time now 2020-Aug-15 11:19 UTC

Location: N 41°08' W 073°33'.
View on Google Maps.

See reports from other nearby stations

  
Tides and Currents Weather Stations Pressure Air Temp Water Temp Dewpoint Dewpoint Depression Visibility Wind Speed Wind Dir Waves Ship Positions
date/time (UTC)wind fromknots sea level pressurealtimeterstation pressurevisibilityair tempwater tempwave heightnotes
2020-Aug-15 11:00 244 16.7
2020-Aug-15 10:45 244 16.1
2020-Aug-15 10:30 244 16.1
2020-Aug-15 10:15 244 16.1
2020-Aug-15 10:00 244 16.1
2020-Aug-15 09:45 244 15.6
2020-Aug-15 09:30 244 15.6
2020-Aug-15 09:15 244 16.1
2020-Aug-15 09:02 244 16.1
2020-Aug-15 08:46 244 16.1
2020-Aug-15 08:32 244 16.1
2020-Aug-15 08:16 244 16.1
2020-Aug-15 08:01 244 16.1
2020-Aug-15 07:46 244 16.1
2020-Aug-15 07:31 244 16.1
2020-Aug-15 07:16 244 16.7
2020-Aug-15 07:01 244 16.7
2020-Aug-15 06:46 244 16.7
2020-Aug-15 06:32 244 16.7
2020-Aug-15 06:16 244 17.2
2020-Aug-15 06:02 244 17.2
2020-Aug-15 05:45 244 17.2
2020-Aug-15 05:31 244 17.8
2020-Aug-15 05:15 244 17.8
2020-Aug-15 05:01 244 17.8
2020-Aug-15 04:46 244 17.8
2020-Aug-15 04:31 244 18.3
2020-Aug-15 04:16 244 18.3
2020-Aug-15 04:00 244 18.3
2020-Aug-15 03:45 244 18.9
2020-Aug-15 03:31 244 18.9
2020-Aug-15 03:16 244 18.9
2020-Aug-15 03:01 244 19.4
2020-Aug-15 02:46 244 19.4
2020-Aug-15 02:31 244 20.0
2020-Aug-15 02:15 244 20.0
2020-Aug-15 02:02 244 20.0
2020-Aug-15 01:46 244 20.6
2020-Aug-15 01:30 244 20.6
2020-Aug-15 01:16 244 20.6
2020-Aug-15 01:00 244 21.1
2020-Aug-15 00:46 244 21.1
2020-Aug-15 00:30 244 21.7
2020-Aug-15 00:15 244 22.2
2020-Aug-15 00:00 244 22.8
2020-Aug-14 23:45 244 23.3
2020-Aug-14 23:30 244 23.9
2020-Aug-14 23:16 244 24.4
2020-Aug-14 23:00 244 25.0
2020-Aug-14 22:46 244 25.6
2020-Aug-14 22:31 244 26.1
2020-Aug-14 22:16 244 27.2
2020-Aug-14 22:01 233 28.3
2020-Aug-14 21:45 225 28.9
2020-Aug-14 21:30 226 0 gusting 4 28.9
2020-Aug-14 21:15 231 0 gusting 5 28.9
2020-Aug-14 21:00 232 28.9
2020-Aug-14 20:45 244 29.4
2020-Aug-14 20:30 232 30.0
2020-Aug-14 20:15 252 30.0
2020-Aug-14 20:00 307 30.0
2020-Aug-14 19:45 212 1 gusting 6 30.0
2020-Aug-14 19:30 210 30.0
2020-Aug-14 19:15 304 29.4
2020-Aug-14 19:00 193 28.9
2020-Aug-14 18:45 255 0 gusting 6 28.9
2020-Aug-14 18:30 259 29.4
2020-Aug-14 18:15 273 28.9
2020-Aug-14 18:00 183 28.3
2020-Aug-14 17:45 248 27.8
2020-Aug-14 17:30 230 1 gusting 6 28.3
2020-Aug-14 17:16 226 28.3
2020-Aug-14 17:01 207 29.4
2020-Aug-14 16:47 330 29.4
2020-Aug-14 16:31 243 0 gusting 5 28.9
2020-Aug-14 16:16 290 28.9
2020-Aug-14 16:01 345 28.9
2020-Aug-14 15:47 041 29.4
2020-Aug-14 15:31 317 28.9
2020-Aug-14 15:16 296 28.3
2020-Aug-14 15:01 312 27.2
2020-Aug-14 14:47 273 25.6
2020-Aug-14 14:30 292 0 gusting 4 25.0
2020-Aug-14 14:16 296 25.0
2020-Aug-14 14:01 284 24.4
2020-Aug-14 13:45 333 23.3
2020-Aug-14 13:30 328 22.8
2020-Aug-14 13:15 316 22.2
2020-Aug-14 13:00 266 21.7
2020-Aug-14 12:45 218 21.1
2020-Aug-14 12:30 218 21.1
2020-Aug-14 12:16 218 20.6
2020-Aug-14 12:01 218 20.0
2020-Aug-14 11:45 218 20.0
2020-Aug-14 11:30 218 19.4
2020-Aug-14 11:15 218 19.4
2020-Aug-14 11:00 218 19.4
2020-Aug-14 10:46 218 19.4
2020-Aug-14 10:30 218 19.4
2020-Aug-14 10:15 218 19.4
2020-Aug-14 10:00 218 19.4
2020-Aug-14 09:45 218 19.4
2020-Aug-14 09:30 218 19.4
2020-Aug-14 09:15 218 19.4
2020-Aug-14 09:00 218 19.4
2020-Aug-14 08:45 218 19.4
2020-Aug-14 08:30 218 19.4
2020-Aug-14 08:15 218 20.0
2020-Aug-14 08:00 218 20.0
2020-Aug-14 07:45 218 20.0
2020-Aug-14 07:30 218 20.0
2020-Aug-14 07:17 218 20.0
2020-Aug-14 07:01 218 20.0
2020-Aug-14 06:47 218 20.0
2020-Aug-14 06:31 218 20.0
2020-Aug-14 06:16 218 20.0
2020-Aug-14 06:02 218 20.0
2020-Aug-14 05:47 218 20.0
2020-Aug-14 05:31 218 20.0
2020-Aug-14 05:16 218 20.0
2020-Aug-14 05:01 218 20.6
2020-Aug-14 04:46 218 20.6
2020-Aug-14 04:31 218 20.6
2020-Aug-14 04:16 218 20.6
2020-Aug-14 04:01 218 20.6
2020-Aug-14 03:46 218 20.6
2020-Aug-14 03:31 218 21.1
2020-Aug-14 03:16 218 21.1
2020-Aug-14 03:01 218 21.1
2020-Aug-14 02:46 218 21.1
2020-Aug-14 02:31 218 21.7
2020-Aug-14 02:15 218 21.7
2020-Aug-14 02:01 218 22.2
2020-Aug-14 01:46 218 22.2
2020-Aug-14 01:32 218 22.2
2020-Aug-14 01:16 218 22.8
2020-Aug-14 01:00 218 22.8
2020-Aug-14 00:46 218 23.3
2020-Aug-14 00:15 218 23.3
2020-Aug-14 00:00 218 23.9
2020-Aug-13 23:01 218 24.4
2020-Aug-13 22:46 218 24.4
2020-Aug-13 22:30 218 24.4
2020-Aug-13 22:15 218 24.4
2020-Aug-13 22:01 218 24.4
2020-Aug-13 21:45 218 24.4
2020-Aug-13 21:31 218 25.0
2020-Aug-13 21:15 218 25.0
2020-Aug-13 21:01 218 25.0
2020-Aug-13 20:46 218 25.0
2020-Aug-13 20:30 218 25.6
2020-Aug-13 20:15 221 26.1
2020-Aug-13 20:00 221 25.6
2020-Aug-13 19:45 221 25.6
2020-Aug-13 19:30 221 25.0
2020-Aug-13 19:15 221 25.0
2020-Aug-13 19:01 221 24.4
2020-Aug-13 18:45 221 24.4
2020-Aug-13 18:30 221 23.9
2020-Aug-13 18:15 221 23.9
2020-Aug-13 17:30 221 23.3
2020-Aug-13 17:15 221 23.3
2020-Aug-13 17:00 221 23.9
2020-Aug-13 16:45 221 23.9
2020-Aug-13 16:30 232 0 gusting 4 24.4
2020-Aug-13 16:15 241 25.6
2020-Aug-13 16:00 216 25.6
2020-Aug-13 15:45 216 25.6
2020-Aug-13 15:30 216 26.1
2020-Aug-13 15:15 216 25.6
2020-Aug-13 15:00 215 25.6
2020-Aug-13 14:47 215 25.6
2020-Aug-13 14:32 215 25.6
2020-Aug-13 14:16 185 25.6
2020-Aug-13 14:03 183 25.0
2020-Aug-13 13:46 183 24.4
2020-Aug-13 13:32 183 23.9
2020-Aug-13 13:16 183 23.9
2020-Aug-13 13:01 183 23.3
2020-Aug-13 12:46 183 22.8
2020-Aug-13 12:31 182 22.8
2020-Aug-13 12:15 182 22.2
2020-Aug-13 12:00 181 21.7
2020-Aug-13 11:47 181 21.1
2020-Aug-13 11:31 181 20.6
2020-Aug-13 11:16 181 20.0
2020-Aug-13 11:01 181 20.0